User: anonymous   Login
Location: Unspecified
(0.0000°N, 0.0000°E)
Time: 06:56:23
(UTC+02:00)
Language:

H-2A R/B - Orbit

View from above orbital plane
View from above orbital plane
View from above satellite
View from above satellite

Ground track
Ground track

The orbit data is extracted from the following two-line orbital elements,

1 26899U 01038B   16238.26478480  .00000509  00000-0  35157-3 0  9993
2 26899  28.0415 185.6229 7105853 351.8870   0.8486  2.47208208129180
Epoch (UTC): 25 August 2016 06:21:17
Eccentricity: 0.7105853
inclination: 28.0415°
perigee height: 308 km
apogee height: 33143 km
right ascension of ascending node: 185.6229°
argument of perigee: 351.8870°
revolutions per day: 2.47208208
mean anomaly at epoch: 0.8486°
orbit number at epoch: 12918

The dashed part of the orbit path shows where the satellite is in the earth's shadow,  

DLR